Regional Weather Roundup
Issued by NWS Upton, NY

Current Version | Previous Version | Text Only | Print | Product List | Glossary On
Versions: 1 2 3 4 5 6 7 8 9 10 11 12 13 14 15 16 17 18 19 20 21 22 23 24 25 26 27 28 29 30 31 32 33 34 35 36 37 38 39 40 41 42 43 44 45 46 47 48 49 50
000 ASUS41 KOKX 212005 RWROKX REGIONAL WEATHER ROUNDUP NATIONAL WEATHER SERVICE NEW YORK NY 300 PM EST SUN DEC 21 2014 NOTE: "FAIR" INDICATES FEW OR NO CLOUDS BELOW 12,000 FEET WITH NO SIGNIFICANT WEATHER AND/OR OBSTRUCTIONS TO VISIBILITY. NYZ071-072-176-178-NJZ106-104-212100- NEW YORK CITY METRO AREA CITY SKY/WX TMP DP RH WIND PRES REMARKS CENTRAL PARK CLOUDY 35 26 69 W3 30.30S LAGUARDIA APRT PTSUNNY 35 29 78 N8 30.29R WCI 29 KENNEDY INTL CLOUDY 37 27 67 NW9 30.29S WCI 30 NEWARK/LIBERTY CLOUDY 36 27 69 NW10 30.29S WCI 28 BRNX BOT. GARD N/A N/A N/A N/A N3 30.31R TETERBORO CLOUDY 36 26 67 NW7 30.28S WCI 30 $$ NYZ177-179-078>081-212100- LONG ISLAND NEW YORK CITY SKY/WX TMP DP RH WIND PRES REMARKS FARMINGDALE CLOUDY 36 29 75 N7 30.28R WCI 30 ISLIP CLOUDY 36 31 82 N7 30.25S WCI 30 SHIRLEY CLOUDY 37 33 85 N8 30.27S WCI 31 WESTHAMPTON CLOUDY 37 34 89 N8 30.27S FOG WCI 31 MONTAUK POINT N/A 39 36 89 NE10 30.26R WCI 32 $$ NYZ052-065-067-212100- HUDSON VALLEY CITY SKY/WX TMP DP RH WIND PRES REMARKS WHITE PLAINS CLOUDY 34 29 82 NW7 30.26S WCI 28 NEWBURGH CLOUDY 32 28 86 VRB6 30.29S FOG WCI 26 MONTGOMERY CLOUDY 33 27 78 N5 30.28S WCI 29 POUGHKEEPSIE CLOUDY 33 27 78 N5 30.30S WCI 29 ALBANY CLOUDY 31 23 72 CALM 30.33R $$ NJZ001-105-106-008-010-013-015-019>022-104-212100- NEW JERSEY CITY SKY/WX TMP DP RH WIND PRES REMARKS NEWARK/LIBERTY CLOUDY 36 27 69 NW10 30.29S WCI 28 TETERBORO CLOUDY 36 26 67 NW7 30.28S WCI 30 CALDWELL CLOUDY 35 26 69 VRB6 30.30R WCI 30 MORRISTOWN CLOUDY 36 27 69 N5 30.30R WCI 32 SOMERVILLE CLOUDY 37 25 61 N5 30.28R WCI 33 SUSSEX CLOUDY 34 25 69 NE3 30.28R ANDOVER N/A 34 24 67 CALM 30.28R TRENTON CLOUDY 36 23 59 NW6 30.29S WCI 31 MILLVILLE SUNNY 40 23 50 NW7 30.28F ATLANTIC CITY SUNNY 41 21 44 N7 30.28S WRIGHTSTOWN MOSUNNY 38 24 58 N8 30.27S WCI 32 TOMS RIVER SUNNY 37 23 56 N10G16 30.29S WCI 30 BELMAR CLOUDY 36 23 60 NW10 30.28S WCI 28 $$ PAZ047>061-062-071-212100- EASTERN PENNSYLVANIA CITY SKY/WX TMP DP RH WIND PRES REMARKS PHILADELPHIA MOSUNNY 39 22 50 NW9 30.30F WCI 33 ALLENTOWN MOSUNNY 34 21 59 N5 30.29F WCI 30 SCRANTON CLOUDY 31 19 61 VRB3 30.27S $$ CTZ002-004>006-009-010-012-RIZ004-006-007-MAZ004-011-015-212100- SOUTHERN NEW ENGLAND IN CT CITY SKY/WX TMP DP RH WIND PRES REMARKS BRADLEY INTL CLOUDY 34 29 82 N7 30.28S WCI 28 HARTFORD CLOUDY 34 30 85 VRB7 30.29S WCI 28 DANBURY CLOUDY 33 28 81 N5 30.27F WCI 29 WTRBRY/OXFORD CLOUDY 34 27 75 N7 30.26S WCI 28 BRIDGEPORT LGT RAIN 37 34 89 N7 30.28S WCI 32 MERIDEN CLOUDY 34 29 82 NE6 30.28S WCI 29 NEW HAVEN CLOUDY 38 32 79 N15 30.27S FOG WCI 29 CHESTER LGT SNOW 34 32 93 N6 30.26S WCI 29 GROTON CLOUDY 37 35 92 N8 30.26S WCI 31 WILLIMANTIC CLOUDY 36 30 79 NE6 30.28S WCI 31 IN RI CITY SKY/WX TMP DP RH WIND PRES REMARKS PROVIDENCE FLURRIES 34 31 88 N9 30.29S WCI 27 BLOCK ISLAND CLOUDY 37 34 87 NE14G23 30.24S WCI 29 WESTERLY CLOUDY 38 32 79 NE9 30.27R WCI 31 IN MA CITY SKY/WX TMP DP RH WIND PRES REMARKS BOSTON FLURRIES 33 29 85 N8 30.31S WCI 26 WORCESTER LGT SNOW 29 27 92 NE7 30.26R FOG WCI 22 WESTFIELD CLOUDY 33 29 85 N6 30.29R WCI 28 PROVINCETOWN CLOUDY 41 34 75 NE5 30.28R NANTUCKET CLOUDY 43 32 65 N12 30.25R $$ ANZ330-335-338-340-345-350-353-355-212100- COASTAL MARINE OBSERVATIONS STATION/POSITION TIME SKY/WX TEMP WIND PRES VSBY WAVE AIR SEA DIR/SP/G HT/PER (UTC) (F) (DEG/KT/KT) (MB) (MI) (FT/S) NY HARB ENTRANCE 2000 36 45 320/ 10/ 12 1025.9 1/10 4S FIRE IS 2000 45 N/A 2/11 20S FIRE ISLAND 1900 38 49 1025.5 1/10 23SW MTP 2000 N/A 4/ 4 HUDSON CANYON 2000 39 55 310/ 8/ 12 1024.6 2/ 4 EXECUTION ROCKS 2000 35 41 340/ 8/ 12 N/A WESTERN LI SOUND 2000 35 340/ 8/ 10 N/A 0 CENTRAL LI SOUND 1900 35 44 360/ 10/ 14 N/A 1/ 2 EASTERN LI SOUND NOT AVBL ROBBINS REEF 2000 35 260/ 6/ 8 1024.5 $$ >>>>>>>>>>>>>>>>>>>>>>>>>>>> KEY <<<<<<<<<<<<<<<<<<<<<<<<<<< > < > SKY/WX - SKY CONDITION/PRESENT WEATHER < > TMP - TEMPERATURE IN FAHRENHEIT < > DP - DEWPOINT IN FAHRENHEIT < > RH - RELATIVE HUMIDITY IN PERCENT < > WIND - DIRECTION AND SPEED IN MPH < > PRES - MEAN SEA LEVEL PRESSURE IN INCHES OF HG < > WCI - WIND CHILL INDEX < > VSB - VISIBILITY IN MILES < > HX - HEAT INDEX < > TC - TEMPERATURE IN CELSIUS < > VRB - VARIABLE WIND DIRECTION < > < >>>>>>>>>>>>>>>>>>>>>>>>>>>> KEY <<<<<<<<<<<<<<<<<<<<<<<<<<<

USA.gov is the U.S. government's official web portal to all federal, state and local government web resources and services.